User: anonymous   Login
Location: Lugrin
(46.4033°N, 6.6674°E)
Time: 12:02:15
(UTC+00:00)
Language:

SPOT 3 Rocket - Orbit

View from above orbital plane
View from above orbital plane
View from above satellite
View from above satellite

Ground track
Ground track

The orbit data is extracted from the following two-line orbital elements,

1 22830U 93061H   21162.86013822  .00000003  00000-0  18064-4 0  9992
2 22830  98.7134 220.3900 0010648 354.6209   5.4858 14.31482886446248
Epoch (UTC): 11 June 2021 20:38:35
Eccentricity: 0.0010648
inclination: 98.7134°
perigee height: 779 km
apogee height: 794 km
right ascension of ascending node: 220.3900°
argument of perigee: 354.6209°
revolutions per day: 14.31482886
mean anomaly at epoch: 5.4858°
orbit number at epoch: 44624

The dashed part of the orbit path shows where the satellite is in the earth's shadow,  

DLR